Waarnemingen

Advertentie
Mijn weer
Orense, Spanje (8048): temperatuur & dauwpunt: 19.02.2018 06:00:00 - 25.02.2018 06:00:00 (CET)Orense, Spanje (8048): windsnelheid: 19.02.2018 06:00:00 - 25.02.2018 06:00:00 (CET)Orense, Spanje (8048): windrichting: 19.02.2018 06:00:00 - 25.02.2018 06:00:00 (CET)Orense, Spanje (8048): luchtdruk: 19.02.2018 06:00:00 - 25.02.2018 06:00:00 (CET)Orense, Spanje (8048): zicht: 19.02.2018 06:00:00 - 25.02.2018 06:00:00 (CET)Orense, Spanje (8048): neerslag: 19.02.2018 06:00:00 - 25.02.2018 06:00:00 (CET)
Datum & Tijd tt [°C] td [°C] ff [km/u] ff [kn] dd ppp [hPa] vv [km] rr [mm]
25.02.2018 06:00:00 -2,4 -4,3 2 1 Z 1012,6 18 0,0
25.02.2018 05:00:00 -1,9 -3,9 2 1 WZW 1012,1 14 0,0
25.02.2018 04:00:00 -1,4 -3,8 2 1 W 1012,1 19 -
25.02.2018 03:00:00 -0,8 -3,5 2 1 ZZW 1011,7 18 0,0
25.02.2018 02:00:00 0,0 -3,2 2 1 O 1011,2 17 0,0
25.02.2018 01:00:00 0,8 -3,3 4 2 ZW 1010,7 13 -
25.02.2018 00:00:00 1,7 -3,4 2 1 ZZO 1010,3 15 0,0
24.02.2018 23:00:00 3,0 -3,4 2 1 Z 1009,4 14 0,0
24.02.2018 22:00:00 4,6 -2,7 2 1 O 1008,5 15 -
24.02.2018 21:00:00 6,9 -2,6 2 1 ZW 1007,3 16 0,0
24.02.2018 20:00:00 10,2 -1,8 5 3 W 1006,3 14 0,0
24.02.2018 19:00:00 15,9 -4,1 4 2 WZW 1005,0 20 -
24.02.2018 18:00:00 17,4 -5,8 4 2 ZW 1004,5 20 0,0
24.02.2018 17:00:00 17,3 -5,9 8 4 ZZW 1004,4 20 0,0
24.02.2018 16:00:00 16,4 -8,8 4 2 NO 1004,6 20 -
24.02.2018 15:00:00 15,5 -5,6 5 3 Z 1004,9 20 0,0
24.02.2018 14:00:00 13,2 -3,6 4 2 W 1006,0 20 0,0
24.02.2018 13:00:00 10,3 -0,2 4 2 ZZW 1007,1 20 -
24.02.2018 12:00:00 5,9 -0,6 4 2 WZW 1007,8 18 0,0
24.02.2018 11:00:00 2,3 -1,7 4 2 ZZW 1008,5 19 0,0
24.02.2018 10:00:00 -2,2 -3,5 2 1 Z 1009,1 19 -
24.02.2018 09:00:00 -3,8 -5,1 2 1 Z 1009,0 19 0,0
24.02.2018 08:00:00 -3,9 -5,2 2 1 W 1008,4 18 0,0
24.02.2018 07:00:00 -3,6 -5,0 2 1 Z 1007,8 19 -
24.02.2018 06:00:00 -3,1 -4,5 2 1 ZZO 1007,5 18 0,0
24.02.2018 05:00:00 -2,6 -4,5 4 2 W 1007,4 20 0,0
24.02.2018 04:00:00 -2,0 -4,2 4 2 W 1007,4 20 -
24.02.2018 03:00:00 -1,5 -4,0 2 1 W 1007,2 20 0,0
24.02.2018 02:00:00 -0,7 -3,7 2 1 ZW 1007,0 20 0,0
24.02.2018 01:00:00 0,1 -3,5 2 1 W 1006,9 20 -
24.02.2018 00:00:00 1,1 -2,8 2 1 WZW 1006,6 18 0,0
23.02.2018 23:00:00 2,7 -2,8 2 1 ZW 1006,3 20 0,0
23.02.2018 22:00:00 4,5 -2,4 2 1 ZW 1005,9 19 -
23.02.2018 21:00:00 7,0 -2,2 2 1 WZW 1005,5 19 0,0
23.02.2018 20:00:00 10,3 -2,4 4 2 ZW 1005,0 19 0,0
23.02.2018 19:00:00 14,2 -5,1 8 4 ZO 1004,1 20 -
23.02.2018 18:00:00 15,9 -7,1 5 3 ZO 1003,9 20 0,0
23.02.2018 17:00:00 15,7 -6,6 8 4 O 1004,3 20 0,0
23.02.2018 16:00:00 15,6 -5,5 9 5 ZZO 1005,0 20 -
23.02.2018 15:00:00 15,1 -4,8 9 5 Z 1005,7 20 0,0
23.02.2018 14:00:00 13,9 -3,9 9 5 ZO 1006,6 20 0,0
23.02.2018 13:00:00 12,7 -4,5 9 5 ZZO 1007,4 20 -
23.02.2018 12:00:00 10,5 -5,5 13 7 ZZO 1008,3 20 0,0
23.02.2018 11:00:00 5,8 1,3 4 2 NO 1009,0 19 0,0
23.02.2018 10:00:00 0,9 0,5 2 1 Z 1009,8 9 -
23.02.2018 09:00:00 -0,4 -1,0 2 1 OZO 1010,1 9 0,0
23.02.2018 08:00:00 -0,4 -1,0 2 1 OZO 1009,8 7 0,0
23.02.2018 07:00:00 -0,2 -0,8 2 1 OZO 1009,6 7 -
23.02.2018 06:00:00 -0,2 -0,6 2 1 O 1009,4 8 0,0
23.02.2018 05:00:00 -0,3 -1,0 2 1 ONO 1009,2 9 0,0
23.02.2018 04:00:00 0,1 -0,9 2 1 WZW 1009,4 9 -
23.02.2018 03:00:00 0,9 -0,6 2 1 WZW 1009,7 17 0,0
23.02.2018 02:00:00 1,9 -0,2 2 1 WZW 1009,7 16 0,0
23.02.2018 01:00:00 3,0 0,6 2 1 ZW 1009,9 16 -
23.02.2018 00:00:00 4,8 1,6 2 1 OZO 1009,8 13 0,0
22.02.2018 23:00:00 6,8 2,5 4 2 Z 1009,7 14 0,0
22.02.2018 22:00:00 8,1 2,5 2 1 WZW 1009,4 20 -
22.02.2018 21:00:00 9,7 2,3 5 3 W 1009,0 20 0,0
22.02.2018 20:00:00 12,1 1,1 4 2 NNO 1008,8 20 0,0
22.02.2018 19:00:00 13,9 0,8 8 4 NO 1008,4 20 -
22.02.2018 18:00:00 16,1 3,8 5 3 ONO 1008,2 20 0,0
22.02.2018 17:00:00 16,4 3,1 4 2 NNW 1008,4 20 0,0
22.02.2018 16:00:00 15,5 1,9 4 2 NO 1009,0 20 -
22.02.2018 15:00:00 14,7 1,9 4 2 W 1010,1 20 0,0
22.02.2018 14:00:00 13,1 1,4 4 2 ZZO 1011,1 10 0,0
22.02.2018 13:00:00 10,9 1,1 4 2 NNW 1012,3 20 -
22.02.2018 12:00:00 8,7 2,9 4 2 NW 1013,2 20 0,0
22.02.2018 11:00:00 5,3 2,6 4 2 Z 1014,0 20 0,0
22.02.2018 10:00:00 1,0 0,9 4 2 ZZW 1014,9 19 -
22.02.2018 09:00:00 -0,6 -1,0 2 1 W 1015,1 18 0,0
22.02.2018 08:00:00 -0,5 -0,8 2 1 OZO 1014,8 19 0,0
22.02.2018 07:00:00 -0,5 -1,1 0 0 N 1014,5 18 -
22.02.2018 06:00:00 -0,3 -1,0 2 1 WZW 1014,2 18 0,0
22.02.2018 05:00:00 0,3 -0,8 0 0 N 1013,9 20 0,0
22.02.2018 04:00:00 1,0 -0,5 2 1 OZO 1014,1 20 -
22.02.2018 03:00:00 1,9 0,0 4 2 ZW 1014,6 20 0,0
22.02.2018 02:00:00 2,7 0,4 5 3 ZW 1014,6 20 0,0
22.02.2018 01:00:00 4,8 1,3 4 2 WZW 1014,3 20 -
22.02.2018 00:00:00 6,4 2,1 4 2 NNO 1014,0 20 0,0
21.02.2018 23:00:00 8,3 2,7 4 2 NNO 1013,4 20 0,0
21.02.2018 22:00:00 9,0 2,8 8 4 N 1013,5 20 -
21.02.2018 21:00:00 9,8 2,9 5 3 N 1013,2 20 0,0
21.02.2018 20:00:00 10,8 2,9 4 2 NNW 1013,1 20 0,0
21.02.2018 19:00:00 12,4 2,8 9 5 N 1012,5 20 -
21.02.2018 18:00:00 14,4 2,9 9 5 NNO 1012,1 20 0,0
21.02.2018 17:00:00 15,5 3,0 8 4 N 1012,2 20 0,0
21.02.2018 16:00:00 16,0 2,7 8 4 N 1012,6 20 -
21.02.2018 15:00:00 15,6 2,0 9 5 NNO 1013,5 20 0,0
21.02.2018 14:00:00 15,4 2,9 8 4 NO 1014,2 20 0,0
21.02.2018 13:00:00 13,4 3,7 8 4 N 1015,6 20 -
21.02.2018 12:00:00 12,0 3,5 9 5 NNO 1016,7 20 0,0
21.02.2018 11:00:00 9,8 3,7 8 4 NO 1017,3 19 0,0
21.02.2018 10:00:00 3,9 3,8 2 1 ZW 1018,1 20 -
21.02.2018 09:00:00 2,4 2,0 2 1 WZW 1018,3 20 0,0
21.02.2018 08:00:00 2,2 1,9 2 1 ZW 1018,2 20 0,0
21.02.2018 07:00:00 2,3 1,9 2 1 WZW 1018,6 20 -
21.02.2018 06:00:00 2,6 2,2 2 1 WZW 1018,7 20 0,0
21.02.2018 05:00:00 3,0 2,3 2 1 W 1018,9 20 0,0
21.02.2018 04:00:00 3,9 2,9 4 2 W 1019,5 20 -
21.02.2018 03:00:00 5,3 3,8 2 1 OZO 1020,3 20 0,0
21.02.2018 02:00:00 6,9 4,7 2 1 Z 1020,7 20 0,0
21.02.2018 01:00:00 8,0 5,5 4 2 OZO 1021,0 20 -
21.02.2018 00:00:00 9,3 5,7 4 2 NW 1021,1 20 0,0
20.02.2018 23:00:00 10,6 6,0 4 2 W 1021,5 20 0,0
20.02.2018 22:00:00 11,3 6,0 8 4 N 1021,3 20 -
20.02.2018 21:00:00 11,9 6,2 4 2 N 1020,8 20 0,0
20.02.2018 20:00:00 12,8 6,4 4 2 NNW 1020,5 20 0,0
20.02.2018 19:00:00 14,5 6,6 5 3 N 1019,9 20 -
20.02.2018 18:00:00 16,6 6,1 8 4 NNO 1019,3 20 0,0
20.02.2018 17:00:00 17,7 6,2 8 4 N 1019,5 20 0,0
20.02.2018 16:00:00 17,3 5,9 11 6 N 1019,8 20 -
20.02.2018 15:00:00 17,2 6,4 8 4 NNO 1020,5 20 0,0
20.02.2018 14:00:00 16,1 6,2 11 6 N 1021,3 20 0,0
20.02.2018 13:00:00 15,4 6,7 8 4 NO 1022,0 20 -
20.02.2018 12:00:00 13,4 6,5 8 4 N 1022,9 20 0,0
20.02.2018 11:00:00 10,3 6,6 4 2 W 1023,6 20 0,0
20.02.2018 10:00:00 5,6 5,0 2 1 ZZW 1023,9 16 -
20.02.2018 09:00:00 5,0 3,8 2 1 ZW 1023,9 16 0,0
20.02.2018 08:00:00 6,1 4,9 2 1 ZO 1023,5 20 0,0
20.02.2018 07:00:00 7,7 5,2 2 1 WZW 1023,4 20 -
20.02.2018 06:00:00 9,5 6,0 8 4 N 1023,1 20 0,0
20.02.2018 05:00:00 9,1 6,2 4 2 NNW 1023,0 20 0,0
20.02.2018 04:00:00 9,3 6,2 4 2 ZW 1023,0 20 -
20.02.2018 03:00:00 10,2 6,7 4 2 NO 1023,1 20 0,0
20.02.2018 02:00:00 10,4 6,9 5 3 W 1023,4 20 0,0
20.02.2018 01:00:00 10,6 7,3 4 2 WNW 1023,4 20 -
20.02.2018 00:00:00 10,9 7,4 5 3 W 1023,1 20 0,0
19.02.2018 23:00:00 10,0 7,2 2 1 OZO 1023,2 17 0,0
19.02.2018 22:00:00 11,5 7,4 2 1 NO 1022,9 20 -
19.02.2018 21:00:00 12,1 7,4 2 1 NNO 1022,9 20 0,0
19.02.2018 20:00:00 12,7 7,6 4 2 NNO 1022,6 20 0,0
19.02.2018 19:00:00 13,9 7,6 5 3 NNO 1022,3 20 -
19.02.2018 18:00:00 15,2 7,2 5 3 NNO 1021,7 20 0,0
19.02.2018 17:00:00 15,3 7,1 8 4 N 1021,6 20 0,0
19.02.2018 16:00:00 15,0 7,0 5 3 NNO 1022,0 20 -
19.02.2018 15:00:00 14,6 6,9 5 3 NNO 1022,2 20 0,0
19.02.2018 14:00:00 14,3 6,6 8 4 NNO 1022,6 20 0,0
19.02.2018 13:00:00 13,7 7,0 5 3 N 1023,2 20 -
19.02.2018 12:00:00 12,3 8,0 4 2 NNW 1023,8 20 0,0
19.02.2018 11:00:00 9,5 7,9 2 1 ZZO 1023,9 9 0,0
19.02.2018 10:00:00 8,0 7,1 0 0 N 1024,1 20 -
19.02.2018 09:00:00 7,7 6,8 2 1 OZO 1024,0 20 0,0
19.02.2018 08:00:00 7,9 6,8 2 1 ZZW 1023,7 20 0,0
19.02.2018 07:00:00 8,3 7,1 2 1 ONO 1023,7 20 -
19.02.2018 06:00:00 8,3 7,1 0 0 N 1023,5 20 0,0

tt = temperatuur
td = dauwpunt
ff = windsnelheid
dd = windrichting
ppp = luchtdruk
vv = zicht
rr = neerslag

Weerstations in de omgeving